• In Kazakhstan
  • List of Countries
  • For 7 days
  • Water Temperature
  • Satellite Maps
  • Weather Map
  • News
  • Weather Widgets
  • user-avatar
    Login

    Hourly Weather Banda

    Today, 21 September, Thursday

    Time Temperature Precipitation Wind Pressure Humidity
    00:00 +26°C° 0.3 mm 1 mps 712 mmHg 93%
    01:00 +26°C° 0.3 mm 1 mps 711 mmHg 94%
    02:00 +25°C° 0.3 mm 1 mps 711 mmHg 94%
    03:00 +25°C° 0.8 mm 1 mps 711 mmHg 95%
    04:00 +25°C° 0.8 mm 1 mps 711 mmHg 95%
    05:00 +25°C° 0.8 mm 1 mps 711 mmHg 95%
    06:00 +26°C° 0.8 mm 1 mps 711 mmHg 94%
    07:00 +26°C° 0.8 mm 1 mps 712 mmHg 93%
    08:00 +26°C° 0.8 mm 1 mps 712 mmHg 93%
    09:00 +27°C° 1.1 mm 2 mps 712 mmHg 91%
    10:00 +27°C° 1.1 mm 2 mps 712 mmHg 89%
    11:00 +27°C° 1.1 mm 2 mps 712 mmHg 88%
    12:00 +27°C° 0.8 mm 2 mps 712 mmHg 88%
    13:00 +28°C° 0.8 mm 2 mps 711 mmHg 88%
    14:00 +28°C° 0.8 mm 3 mps 710 mmHg 88%
    15:00 +27°C° 0.4 mm 3 mps 710 mmHg 89%
    16:00 +27°C° 0.4 mm 3 mps 710 mmHg 90%
    17:00 +27°C° 0.4 mm 3 mps 710 mmHg 91%
    18:00 +27°C° 1.2 mm 3 mps 711 mmHg 92%
    19:00 +26°C° 1.2 mm 3 mps 711 mmHg 93%
    20:00 +26°C° 1.2 mm 3 mps 711 mmHg 94%
    21:00 +25°C° 0.9 mm 2 mps 711 mmHg 94%
    22:00 +25°C° 0.9 mm 2 mps 711 mmHg 95%
    23:00 +25°C° 0.9 mm 2 mps 712 mmHg 95%

    Tomorrow, 22 September, Friday

    Time Temperature Precipitation Wind Pressure Humidity
    00:00 +25°C° 0.8 mm 2 mps 711 mmHg 96%
    01:00 +25°C° 0.8 mm 2 mps 711 mmHg 96%
    02:00 +25°C° 0.8 mm 2 mps 711 mmHg 96%
    03:00 +25°C° 1 mm 2 mps 711 mmHg 96%
    04:00 +25°C° 1 mm 3 mps 711 mmHg 96%
    05:00 +25°C° 1 mm 3 mps 711 mmHg 95%
    06:00 +25°C° 1 mm 4 mps 712 mmHg 94%
    07:00 +25°C° 1 mm 4 mps 712 mmHg 93%
    08:00 +25°C° 1 mm 5 mps 713 mmHg 92%
    09:00 +25°C° 0.2 mm 5 mps 713 mmHg 91%
    10:00 +25°C° 0.2 mm 5 mps 713 mmHg 90%
    11:00 +25°C° 0.2 mm 5 mps 713 mmHg 89%
    12:00 +25°C° 0.3 mm 5 mps 712 mmHg 89%
    13:00 +25°C° 0.3 mm 5 mps 712 mmHg 88%
    14:00 +26°C° 0.3 mm 5 mps 712 mmHg 88%
    15:00 +26°C° 0.5 mm 5 mps 712 mmHg 89%
    16:00 +26°C° 0.5 mm 4 mps 712 mmHg 90%
    17:00 +25°C° 0.5 mm 4 mps 712 mmHg 91%
    18:00 +25°C° 0.2 mm 4 mps 713 mmHg 91%
    19:00 +25°C° 0.2 mm 4 mps 713 mmHg 91%
    20:00 +25°C° 0.2 mm 4 mps 714 mmHg 91%
    21:00 +25°C° 0 mm 4 mps 714 mmHg 91%
    22:00 +23°C° 0 mm 4 mps 714 mmHg 90%
    23:00 +23°C° 0 mm 4 mps 714 mmHg 90%

    Day after tomorrow, 23 September, Saturday

    Time Temperature Precipitation Wind Pressure Humidity
    00:00 +23°C° 0 mm 4 mps 714 mmHg 90%
    01:00 +23°C° 0 mm 4 mps 713 mmHg 91%
    02:00 +23°C° 0 mm 4 mps 713 mmHg 91%
    03:00 +23°C° 0 mm 4 mps 713 mmHg 91%
    04:00 +23°C° 0 mm 4 mps 713 mmHg 92%
    05:00 +24°C° 0 mm 3 mps 714 mmHg 92%
    06:00 +25°C° 0 mm 4 mps 714 mmHg 91%
    07:00 +25°C° 0 mm 4 mps 715 mmHg 90%
    08:00 +25°C° 0 mm 4 mps 716 mmHg 89%
    09:00 +27°C° 0 mm 4 mps 716 mmHg 84%
    10:00 +28°C° 0 mm 5 mps 716 mmHg 78%
    11:00 +30°C° 0 mm 5 mps 716 mmHg 72%
    12:00 +30°C° 0 mm 5 mps 715 mmHg 70%
    13:00 +32°C° 0 mm 5 mps 715 mmHg 67%
    14:00 +32°C° 0 mm 5 mps 714 mmHg 65%
    15:00 +32°C° 0.1 mm 5 mps 714 mmHg 69%
    16:00 +30°C° 0.1 mm 4 mps 714 mmHg 73%
    17:00 +29°C° 0.1 mm 3 mps 714 mmHg 77%
    18:00 +28°C° 0 mm 3 mps 714 mmHg 79%
    19:00 +27°C° 0 mm 2 mps 715 mmHg 81%
    20:00 +26°C° 0 mm 2 mps 715 mmHg 83%
    21:00 +26°C° 0 mm 2 mps 715 mmHg 84%
    22:00 +26°C° 0 mm 3 mps 715 mmHg 85%
    23:00 +26°C° 0 mm 3 mps 715 mmHg 86%

    24 September, Sunday

    Time Temperature Precipitation Wind Pressure Humidity
    00:00 +25°C° 0 mm 3 mps 715 mmHg 88%
    01:00 +25°C° 0 mm 4 mps 714 mmHg 89%
    02:00 +25°C° 0 mm 4 mps 714 mmHg 90%
    03:00 +25°C° 0 mm 4 mps 714 mmHg 90%
    04:00 +25°C° 0 mm 4 mps 714 mmHg 90%
    05:00 +25°C° 0 mm 4 mps 714 mmHg 90%
    06:00 +26°C° 0 mm 4 mps 715 mmHg 86%
    07:00 +27°C° 0 mm 5 mps 715 mmHg 81%
    08:00 +28°C° 0 mm 5 mps 716 mmHg 76%
    09:00 +29°C° 0 mm 5 mps 716 mmHg 71%
    10:00 +30°C° 0 mm 5 mps 716 mmHg 66%
    11:00 +32°C° 0 mm 5 mps 716 mmHg 60%
    12:00 +33°C° 0 mm 5 mps 715 mmHg 59%
    13:00 +33°C° 0 mm 5 mps 715 mmHg 57%
    14:00 +34°C° 0 mm 5 mps 714 mmHg 56%
    15:00 +33°C° 0 mm 4 mps 714 mmHg 60%
    16:00 +32°C° 0 mm 4 mps 714 mmHg 65%
    17:00 +30°C° 0 mm 3 mps 714 mmHg 69%
    18:00 +29°C° 0 mm 3 mps 714 mmHg 70%
    19:00 +28°C° 0 mm 3 mps 714 mmHg 72%
    20:00 +27°C° 0 mm 2 mps 715 mmHg 73%
    21:00 +27°C° 0 mm 3 mps 714 mmHg 74%
    22:00 +26°C° 0 mm 3 mps 714 mmHg 76%
    23:00 +26°C° 0 mm 3 mps 714 mmHg 78%

    25 September, Monday

    Time Temperature Precipitation Wind Pressure Humidity
    00:00 +26°C° 0 mm 4 mps 714 mmHg 78%
    01:00 +26°C° 0 mm 4 mps 713 mmHg 79%
    02:00 +25°C° 0 mm 4 mps 713 mmHg 80%
    03:00 +25°C° 0 mm 4 mps 713 mmHg 80%
    04:00 +25°C° 0 mm 4 mps 713 mmHg 80%
    05:00 +25°C° 0 mm 4 mps 713 mmHg 80%
    06:00 +26°C° 0 mm 5 mps 714 mmHg 77%
    07:00 +27°C° 0 mm 5 mps 715 mmHg 74%
    08:00 +28°C° 0 mm 5 mps 715 mmHg 71%
    09:00 +29°C° 0 mm 5 mps 715 mmHg 66%
    10:00 +32°C° 0 mm 5 mps 715 mmHg 61%
    11:00 +33°C° 0 mm 5 mps 715 mmHg 56%
    12:00 +34°C° 0 mm 5 mps 715 mmHg 54%
    13:00 +34°C° 0 mm 6 mps 714 mmHg 52%
    14:00 +35°C° 0 mm 6 mps 713 mmHg 49%
    15:00 +33°C° 0 mm 5 mps 713 mmHg 54%
    16:00 +32°C° 0 mm 4 mps 713 mmHg 59%
    17:00 +30°C° 0 mm 3 mps 713 mmHg 64%
    18:00 +29°C° 0 mm 3 mps 713 mmHg 65%
    19:00 +28°C° 0 mm 3 mps 713 mmHg 66%
    20:00 +27°C° 0 mm 2 mps 714 mmHg 67%
    21:00 +27°C° 0 mm 3 mps 713 mmHg 68%
    22:00 +27°C° 0 mm 3 mps 713 mmHg 69%
    23:00 +26°C° 0 mm 3 mps 713 mmHg 69%

    26 September, Tuesday

    Time Temperature Precipitation Wind Pressure Humidity
    00:00 +26°C° 0 mm 3 mps 713 mmHg 71%
    01:00 +25°C° 0 mm 3 mps 713 mmHg 73%
    02:00 +25°C° 0 mm 4 mps 712 mmHg 74%
    03:00 +25°C° 0 mm 4 mps 712 mmHg 75%
    04:00 +25°C° 0 mm 4 mps 713 mmHg 75%
    05:00 +23°C° 0 mm 4 mps 713 mmHg 76%
    06:00 +25°C° 0 mm 4 mps 713 mmHg 72%
    07:00 +27°C° 0 mm 4 mps 714 mmHg 69%
    08:00 +28°C° 0 mm 4 mps 714 mmHg 66%
    09:00 +29°C° 0 mm 4 mps 715 mmHg 61%
    10:00 +32°C° 0 mm 5 mps 715 mmHg 57%
    11:00 +34°C° 0 mm 5 mps 715 mmHg 52%
    12:00 +34°C° 0 mm 5 mps 714 mmHg 50%
    13:00 +35°C° 0 mm 5 mps 714 mmHg 49%
    14:00 +35°C° 0 mm 6 mps 713 mmHg 47%
    15:00 +34°C° 0 mm 5 mps 713 mmHg 52%
    16:00 +33°C° 0 mm 4 mps 713 mmHg 57%
    17:00 +30°C° 0 mm 3 mps 713 mmHg 62%
    18:00 +29°C° 0 mm 3 mps 713 mmHg 62%
    19:00 +28°C° 0 mm 2 mps 713 mmHg 63%
    20:00 +28°C° 0 mm 2 mps 714 mmHg 63%
    21:00 +27°C° 0 mm 2 mps 714 mmHg 65%
    22:00 +27°C° 0 mm 2 mps 714 mmHg 66%
    23:00 +27°C° 0 mm 2 mps 714 mmHg 68%
    Show more